Home > Weather > Chicago > Past weeks

Flag for USA Past Weather in Chicago, Illinois, USA — Yesterday and Last 2 Weeks

Now
78 °F

Partly cloudy.


Feels Like: 80 °F
Forecast: 72 / 83 °F
Wind: 3 mph from East

Location: Chicago Midway Airport

Current Time: Jul 26, 2016 at 1:39:50 AM

Latest Report: Jul 26, 2016 at 12:53 AM


Visibility: 10 mi

Pressure: 29.99 "Hg

Humidity: 58%

Dew Point: 62 °F

Location of ChicagoLocation

Past Weather in Chicago — Graph

°F

Chicago Temperature Yesterday

Maximum temperature yesterday: 86 °F (at 2:53 PM)
Minimum temperature yesterday: 74 °F (at 1:53 AM)
Average temperature yesterday: 80 °F

High & Low Weather Summary for the Past Weeks

 TemperatureHumidityPressure
High93 °F (Jul 24, 2:53 PM)93% (Jul 23, 10:53 PM)30.22 "Hg (Jul 23, 10:53 PM)
Low62 °F (Jul 16, 4:53 AM)35% (Jul 14, 5:53 PM)29.73 "Hg (Jul 13, 8:03 PM)
Average79 °F67%29.97 "Hg
* Reported Jul 10 11:53 PM — Jul 25 11:53 PM, Chicago, Weather by CustomWeather, © 2016

Note: Actual official high and low records may vary slightly from our data, if they occured in-between our weather recording intervals... More about our weather records

Advertising

Chicago Weather History for the Previous 24 Hours

Scroll right to see more
 ConditionsComfort  
Time TempWeatherWind HumidityBarometerVisibility
11:53 PM
Mon, Jul 25
78 °FPassing clouds.5 mph56%29.98 "Hg10 mi
10:53 PM79 °FPassing clouds.6 mph54%29.98 "Hg10 mi
9:53 PM80 °FPassing clouds.3 mph52%29.97 "Hg10 mi
8:53 PM81 °FPartly sunny.6 mph49%29.96 "Hg10 mi
7:53 PM82 °FPartly sunny.7 mph49%29.95 "Hg10 mi
6:53 PM83 °FPartly sunny.9 mph50%29.94 "Hg10 mi
5:53 PM84 °FBroken clouds.10 mph48%29.94 "Hg10 mi
4:53 PM85 °FPartly sunny.10 mph50%29.94 "Hg10 mi
3:53 PM85 °FBroken clouds.9 mph48%29.94 "Hg10 mi
2:53 PM86 °FBroken clouds.9 mph48%29.95 "Hg10 mi
1:53 PM85 °FScattered clouds.12 mph50%29.97 "Hg10 mi
12:53 PM85 °FPartly sunny.9 mph50%29.98 "Hg10 mi
11:53 AM84 °FPartly sunny.9 mph48%29.96 "Hg10 mi
10:53 AM84 °FPartly sunny.6 mph51%29.96 "Hg10 mi
9:53 AM82 °FPartly sunny.6 mph56%29.96 "Hg10 mi
8:53 AM81 °FPartly sunny.10 mph60%29.96 "Hg10 mi
7:53 AM79 °FPartly sunny.13 mph67%29.93 "Hg10 mi
6:53 AM76 °FScattered clouds.9 mph80%29.93 "Hg10 mi
5:53 AM75 °FPartly cloudy.9 mph82%29.92 "Hg10 mi
4:53 AM77 °FPassing clouds.7 mph74%29.91 "Hg10 mi
3:53 AM76 °FMostly cloudy.7 mph72%29.91 "Hg10 mi
2:53 AM75 °FMostly cloudy.9 mph71%29.92 "Hg10 mi
1:53 AM74 °FMostly cloudy.9 mph71%29.93 "Hg10 mi
Weather by CustomWeather, © 2016

See weather overviewHow to use our weather pages